Alamosa, CO

7:21 AM MST on February 10, 2016 (GMT -0700)
San Luis Valley Regional / Bergman Field

Weather History for KALS - April, 2013

Change the Weather History Date:

Wednesday, April 17, 2013

  Actual Average Record
Temperature  
Mean Temperature 36 °F 42 °F  
Max Temperature 50 °F 60 °F 74 °F (1954)
Min Temperature 22 °F 25 °F 3 °F (1999)
Degree Days  
Heating Degree Days 29 23  
Month to date heating degree days 392 426  
Since 1 July heating degree days 8138 7732  
Cooling Degree Days 0 0  
Month to date cooling degree days 0 0  
Year to date cooling degree days 0 0  
Moisture  
Dew Point 17 °F    
Average Humidity 48    
Maximum Humidity 68    
Minimum Humidity 27    
Precipitation  
Precipitation 0.01 in 0.03 in 0.45 in (2010)
Month to date precipitation 0.28 0.32  
Year to date precipitation 0.84 1.37  
Snow  
Snow T in 0.10 in 3.30 in (2008)
Month to date snowfall 1.5 2.3  
Since 1 July snowfall 20.4 25.4  
Snow Depth 0.00 in    
Sea Level Pressure  
Sea Level Pressure 29.64 in    
Wind  
Wind Speed 16 mph (SW)    
Max Wind Speed 35 mph    
Max Gust Speed 43 mph    
Visibility 10 miles    
Events Snow    
T = Trace of Precipitation, MM = Missing Value Source: NWS Daily Summary

Daily Weather History Graph

Daily Weather History Graph

Search for Another Location

Airport or City:

Trip Planner

Search our weather history database for the weather conditions in past years. The results will help you decide how hot, cold, wet, or windy it might be!

Date:

Astronomy

Apr. 17, 2013 Rise Set
Actual Time 6:25 AM MDT 7:40 PM MDT
Civil Twilight 5:58 AM MDT 8:08 PM MDT
Nautical Twilight 5:26 AM MDT 8:40 PM MDT
Astronomical Twilight 4:52 AM MDT 9:14 PM MDT
Moon 11:44 AM MDT (4/17) 1:17 AM MDT (4/17)
Length of Visible Light 14h 09m
Length of Day
13h 15m
Waxing Crescent, 43% of the Moon is Illuminated
Apr 17
Waxing Crescent
Apr 18
First Quarter
Apr 25
Full
May 2
Last Quarter
May 9
New

Hourly Weather History & Observations

Time (MDT) Temp. Windchill Dew Point Humidity Pressure Visibility Wind Dir Wind Speed Gust Speed Precip Events Conditions
12:52 AM 45.0 °F 37.1 °F 14.0 °F 29% 29.55 in 10.0 mi SW 19.6 mph - N/A   Clear
1:52 AM 43.0 °F 35.1 °F 14.0 °F 31% 29.55 in 10.0 mi SW 17.3 mph 25.3 mph N/A   Clear
2:52 AM 36.0 °F 28.5 °F 15.1 °F 43% 29.58 in 10.0 mi South 10.4 mph - N/A   Clear
3:52 AM 37.9 °F 30.9 °F 16.0 °F 41% 29.56 in 10.0 mi SSW 10.4 mph - N/A   Clear
4:52 AM 35.1 °F 27.4 °F 17.1 °F 48% 29.57 in 10.0 mi South 10.4 mph - N/A   Clear
5:52 AM 36.0 °F 28.5 °F 18.0 °F 48% 29.54 in 10.0 mi South 10.4 mph - N/A   Scattered Clouds
6:52 AM 37.0 °F 30.4 °F 21.0 °F 52% 29.57 in 10.0 mi SSW 9.2 mph - N/A   Mostly Cloudy
7:52 AM 39.0 °F 33.4 °F 26.1 °F 60% 29.57 in 10.0 mi SSW 8.1 mph - N/A   Partly Cloudy
8:52 AM 42.1 °F 32.8 °F 28.0 °F 58% 29.57 in 10.0 mi SSW 21.9 mph 28.8 mph N/A   Overcast
9:52 AM 42.1 °F 32.8 °F 27.0 °F 55% 29.59 in 10.0 mi SW 21.9 mph 28.8 mph 0.00 in   Overcast
10:52 AM 44.1 °F 35.2 °F 21.9 °F 42% 29.60 in 10.0 mi SW 23.0 mph 28.8 mph N/A   Overcast
11:52 AM 44.1 °F 36.5 °F 23.0 °F 43% 29.59 in 10.0 mi SW 17.3 mph 23.0 mph N/A   Mostly Cloudy
12:52 PM 48.0 °F - 19.9 °F 33% 29.53 in 10.0 mi SW 19.6 mph 39.1 mph N/A   Partly Cloudy
1:52 PM 45.0 °F 35.6 °F 17.1 °F 33% 29.57 in 10.0 mi WSW 27.6 mph 34.5 mph N/A   Partly Cloudy
2:52 PM 41.0 °F 31.6 °F 21.2 °F 45% 29.72 in 10.0 mi West 20.7 mph 27.6 mph N/A   Overcast
3:52 PM 42.1 °F 33.6 °F 12.9 °F 31% 29.60 in 10.0 mi WSW 18.4 mph 24.2 mph N/A   Mostly Cloudy
4:36 PM 42.8 °F 36.6 °F 15.8 °F 34% 29.69 in 10.0 mi NW 11.5 mph - N/A   Overcast
4:52 PM 41.0 °F 33.1 °F 16.0 °F 36% 29.64 in 10.0 mi West 15.0 mph - N/A   Mostly Cloudy
5:52 PM 39.9 °F 31.8 °F 10.9 °F 31% 29.66 in 10.0 mi WSW 15.0 mph - N/A   Overcast
6:52 PM 39.0 °F 29.6 °F 8.1 °F 28% 29.66 in 10.0 mi West 18.4 mph - N/A   Overcast
7:52 PM 36.0 °F 26.3 °F 10.9 °F 36% 29.68 in 10.0 mi WSW 16.1 mph 23.0 mph N/A   Overcast
8:52 PM 27.0 °F 12.8 °F 17.1 °F 66% 29.75 in 10.0 mi East 21.9 mph 27.6 mph N/A   Mostly Cloudy
9:52 PM 23.0 °F 7.6 °F 12.0 °F 63% 29.81 in 10.0 mi ESE 21.9 mph 26.5 mph N/A   Clear
10:52 PM 21.9 °F 9.8 °F 8.1 °F 55% 29.84 in 10.0 mi East 12.7 mph 20.7 mph N/A   Scattered Clouds
11:52 PM 25.0 °F 14.8 °F 19.9 °F 81% 29.85 in 2.5 mi NNE 10.4 mph - 0.00 in Snow Light Snow